DW5432 Taoyuan TW current weather conditions

sailwx.info

Wind from 104 at 8 knots gusting 18

Air temperature 23.9° C
Dewpoint 19.0° C

Last reported at 2020-Oct-26 10:00 UTC.
Time now 2020-Oct-26 10:45 UTC

Location: N 24°57' E 121°13'.
View on Google Maps.

See reports from other nearby stations

  
Tides and Currents Weather Stations Pressure Air Temp Water Temp Dewpoint Dewpoint Depression Visibility Wind Speed Wind Dir Waves Ship Positions
date/time (UTC)wind fromknots sea level pressurealtimeterstation pressurevisibilityair tempwater tempwave heightnotes
2020-Oct-26 10:00 104 8 gusting 18 23.9
2020-Oct-26 09:45 111 9 gusting 17 23.9
2020-Oct-26 09:30 098 7 gusting 16 24.4
2020-Oct-26 09:15 121 10 gusting 19 24.4
2020-Oct-26 09:00 126 9 gusting 21 24.4
2020-Oct-26 08:46 100 9 gusting 24 24.4
2020-Oct-26 08:31 080 12 gusting 21 25.0
2020-Oct-26 08:17 130 10 gusting 24 25.0
2020-Oct-26 08:01 099 7 gusting 21 25.0
2020-Oct-26 07:45 076 12 gusting 24 25.0
2020-Oct-26 07:31 107 11 gusting 20 25.6
2020-Oct-26 07:16 105 9 gusting 19 26.1
2020-Oct-26 07:01 092 10 gusting 19 26.1
2020-Oct-26 06:45 115 12 gusting 21 26.1
2020-Oct-26 06:31 088 10 gusting 18 26.1
2020-Oct-26 06:15 105 11 gusting 22 26.1
2020-Oct-26 06:00 101 10 gusting 19 26.7
2020-Oct-26 05:45 089 9 gusting 18 26.7
2020-Oct-26 05:31 102 8 gusting 20 26.7
2020-Oct-26 05:15 090 11 gusting 20 26.7
2020-Oct-26 05:00 078 10 gusting 21 26.7
2020-Oct-26 04:45 091 10 gusting 17 27.2
2020-Oct-26 04:30 136 13 gusting 23 26.7
2020-Oct-26 04:17 118 7 gusting 20 26.7
2020-Oct-26 04:01 110 10 gusting 24 26.7
2020-Oct-25 20:00
2020-Oct-25 19:00
2020-Oct-25 18:00
2020-Oct-25 17:03
2020-Oct-25 16:01 090 6 21.7
2020-Oct-25 15:00 21.7
2020-Oct-25 14:15 086 9 22.2
2020-Oct-25 14:00 068 11 22.2
2020-Oct-25 13:30 140 9 22.2
2020-Oct-25 13:15
2020-Oct-25 13:02
2020-Oct-25 12:47
2020-Oct-25 12:32
2020-Oct-25 12:17
2020-Oct-25 12:01
2020-Oct-25 11:47
2020-Oct-25 11:31
2020-Oct-25 11:17
2020-Oct-25 11:01
2020-Oct-25 10:46
2020-Oct-25 10:30
2020-Oct-25 10:15 22.2
2020-Oct-25 10:02 22.2
2020-Oct-25 10:00 22.2
2020-Oct-25 09:47 22.2
2020-Oct-25 09:31 22.8
2020-Oct-25 09:16 22.8
2020-Oct-25 09:01 23.3
2020-Oct-25 08:46 23.9
2020-Oct-25 08:33 23.9
2020-Oct-25 08:16 103 8 23.9
2020-Oct-25 08:02 123 6 24.4
2020-Oct-25 07:46 112 10 24.4
2020-Oct-25 07:31 121 10 24.4
2020-Oct-25 07:15 080 10 24.4
2020-Oct-25 07:01 101 7 25.0
2020-Oct-25 06:45 076 8 24.4
2020-Oct-25 06:30 104 8 24.4
2020-Oct-25 06:15 110 10 24.4
2020-Oct-25 06:00 109 9 24.4
2020-Oct-25 05:46 071 11 24.4
2020-Oct-25 05:30 109 7 24.4
2020-Oct-25 05:15 115 11 gusting 19 23.9
2020-Oct-25 05:00 101 9 gusting 23 24.4
2020-Oct-25 04:45 043 12 gusting 21 24.4
2020-Oct-25 04:30 056 10 gusting 18 24.4
2020-Oct-25 04:15 098 10 gusting 20 23.9
2020-Oct-25 04:00 103 8 gusting 22 23.9
2020-Oct-25 03:47 105 9 gusting 18 24.4
2020-Oct-25 03:32 113 8 gusting 16 25.0
2020-Oct-25 03:15 107 9 gusting 19 24.4
2020-Oct-25 03:01 085 8 gusting 15 24.4
2020-Oct-25 02:47 104 8 gusting 19 23.9
2020-Oct-25 02:31 096 9 gusting 18 23.9
2020-Oct-25 02:15 089 12 gusting 22 23.3
2020-Oct-25 02:01 095 10 gusting 19 23.3
2020-Oct-25 01:46 093 6 gusting 17 23.3
2020-Oct-25 01:30 090 10 gusting 18 22.8
2020-Oct-25 01:15 090 10 gusting 19 22.2
2020-Oct-25 01:01 068 10 gusting 22 22.2
2020-Oct-25 00:45 055 7 gusting 20 21.7
2020-Oct-25 00:30 074 10 gusting 19 21.7
2020-Oct-25 00:15 069 8 gusting 26 21.7
2020-Oct-25 00:00 115 8 gusting 20 21.7
2020-Oct-24 23:45 100 9 gusting 19 21.7
2020-Oct-24 23:31 091 6 gusting 17 21.7
2020-Oct-24 23:16 117 9 gusting 20 21.1
2020-Oct-24 23:02 107 9 gusting 18 21.1
2020-Oct-24 22:46 097 8 gusting 19 21.1
2020-Oct-24 22:31 131 7 gusting 15 21.1
2020-Oct-24 22:16 108 9 gusting 19 21.1
2020-Oct-24 22:00 086 7 gusting 16 21.1
2020-Oct-24 21:46 094 6 gusting 15 21.1
2020-Oct-24 21:30 084 8 gusting 22 21.1
2020-Oct-24 21:15 105 10 gusting 19 21.1
2020-Oct-24 21:00 128 8 gusting 15 21.1
2020-Oct-24 20:45 107 6 gusting 13 21.1
2020-Oct-24 20:30 098 8 gusting 14 21.1
2020-Oct-24 20:15 092 6 gusting 19 21.1
2020-Oct-24 20:00 089 7 gusting 16 21.1
2020-Oct-24 19:45 126 7 gusting 16 21.1
2020-Oct-24 19:31 089 9 gusting 17 21.1
2020-Oct-24 19:16 063 8 gusting 17 21.1
2020-Oct-24 19:01 087 8 gusting 18 21.1
2020-Oct-24 18:46 082 9 gusting 15 21.1
2020-Oct-24 18:31 081 7 gusting 16 21.1
2020-Oct-24 18:17 092 11 gusting 22 21.1
2020-Oct-24 18:02 097 7 gusting 17 21.1
2020-Oct-24 17:47 103 7 gusting 18 21.1
2020-Oct-24 17:32 121 10 gusting 21 21.1
2020-Oct-24 17:16 077 8 gusting 18 20.6
2020-Oct-24 17:01 040 9 gusting 19 20.6
2020-Oct-24 16:45 084 10 gusting 19 20.6
2020-Oct-24 16:30 086 11 gusting 19 20.6
2020-Oct-24 16:15 078 13 gusting 23 20.6
2020-Oct-24 16:01 112 9 gusting 19 20.6
2020-Oct-24 15:46 110 13 gusting 23 20.6
2020-Oct-24 15:30 096 10 gusting 22 20.6
2020-Oct-24 15:15 087 12 gusting 20 20.6
2020-Oct-24 15:00 121 9 gusting 20 20.6
2020-Oct-24 14:46 123 13 gusting 22 20.6
2020-Oct-24 14:30 091 10 gusting 19 20.6
2020-Oct-24 14:15 122 10 gusting 18 20.6
2020-Oct-24 14:00 109 13 gusting 24 20.6
2020-Oct-24 13:45 108 11 gusting 20 20.6
2020-Oct-24 13:30 090 10 gusting 20 20.6
2020-Oct-24 13:17 116 12 gusting 23 20.6
2020-Oct-24 13:01 101 11 gusting 23 20.6
2020-Oct-24 12:47 101 11 gusting 22 20.6
2020-Oct-24 12:31 123 11 gusting 21 20.6
2020-Oct-24 12:17 086 10 gusting 23 20.6
2020-Oct-24 12:02 095 11 gusting 22 20.6
2020-Oct-24 11:46 082 10 gusting 26 20.6
2020-Oct-24 11:31 109 10 gusting 22 20.6
2020-Oct-24 11:17 080 13 gusting 23 21.1
2020-Oct-24 11:01 122 11 gusting 25 21.1
2020-Oct-24 10:45 067 12 gusting 23 20.6
2020-Oct-24 10:30 117 13 gusting 30 21.1